EHI
7 9 15 23 23 15 5 3 3 1 1 2 3 2 1 0 1 1 3 7 10 8 6 7 9 9 8 6 5 4 5 7 8 8 9 9 9 11 10 6 4 3 3 3 3 3 3 3 3
8 13 22 25 20 11 4 3 3 2 1 2 2 2 1 1 2 3 5 8 9 8 6 6 8 8 8 6 5 5 6 8 9 8 8 7 8 10 9 6 4 3 3 3 3 3 3 3 3
13 20 26 22 13 6 3 3 2 1 0 1 1 1 1 1 3 4 6 8 8 7 6 7 8 8 7 6 5 5 7 8 8 7 6 5 7 8 8 6 4 3 3 3 3 3 3 3 3
18 23 23 14 6 3 3 2 1 0 0 0 0 1 2 3 3 4 6 6 7 7 7 8 9 9 8 7 6 6 7 7 7 6 5 5 6 7 7 6 5 4 3 3 3 4 3 3 3
24 23 16 7 3 2 2 1 0 0 0 0 1 2 3 3 4 5 6 6 6 7 8 9 9 9 9 9 8 7 6 6 7 7 6 6 6 6 6 6 6 5 4 3 4 5 4 4 4
28 21 11 5 2 2 2 1 0 0 0 0 1 2 3 3 4 5 6 5 6 7 9 9 9 9 9 9 8 8 7 7 8 8 7 7 6 6 6 6 6 5 4 3 4 5 5 4 4
26 19 9 3 2 3 2 1 0 0 0 0 1 3 5 5 4 5 5 4 5 7 8 8 8 9 9 8 8 8 9 10 10 9 9 7 7 6 6 6 5 4 4 4 3 4 5 4 3
19 13 6 3 3 3 2 1 0 0 1 2 2 4 7 6 4 5 4 4 4 4 6 7 7 9 9 8 8 8 9 11 11 11 11 9 7 6 6 6 6 5 4 4 4 5 5 5 4
12 9 4 2 2 2 1 0 0 0 2 3 4 6 8 6 4 4 5 5 5 5 5 6 8 9 9 9 8 8 8 9 11 12 12 10 7 6 6 8 10 10 7 6 6 8 9 8 7
8 6 3 2 2 1 0 0 0 0 2 4 6 7 7 6 4 4 6 7 8 8 7 8 9 9 9 9 9 9 9 9 10 11 11 9 7 6 6 9 13 13 9 7 8 10 11 9 9
4 3 3 2 1 0 0 0 0 0 1 4 6 7 8 6 5 5 6 9 11 10 8 9 9 8 9 11 11 11 12 12 10 9 9 9 8 6 4 7 10 10 8 7 8 9 8 7 7
2 1 1 1 1 0 0 0 0 0 1 3 5 7 8 7 6 6 8 11 12 9 5 6 9 9 11 13 12 9 10 12 11 11 11 11 10 7 5 6 7 6 5 6 7 7 6 6 6
1 0 0 0 0 0 0 0 0 1 2 4 5 5 6 7 7 7 10 13 12 8 5 5 9 12 12 12 11 8 7 8 10 12 12 11 10 8 7 9 9 6 4 5 6 6 6 7 7
0 0 0 0 0 0 0 0 0 1 3 5 5 3 3 6 8 9 11 13 12 10 7 7 10 12 12 10 10 8 6 5 7 9 10 9 9 8 8 9 10 7 4 4 4 6 8 8 8
0 0 0 0 0 0 1 1 1 3 5 5 4 3 3 6 9 11 13 13 13 12 10 9 9 10 11 10 9 8 6 4 5 6 8 9 8 8 8 7 7 7 6 5 5 7 10 11 9
1 1 0 0 0 0 1 2 3 4 6 6 6 6 6 7 9 13 16 16 16 16 15 13 11 10 10 8 7 5 4 4 4 5 8 10 8 8 8 7 7 8 9 8 7 8 11 12 11
2 1 1 1 1 1 1 2 3 4 6 8 9 10 10 10 10 14 17 19 20 21 22 21 18 14 11 9 7 6 5 5 6 7 9 10 9 9 8 8 9 11 10 9 7 8 10 11 12
1 1 0 0 1 2 3 3 2 3 6 9 10 12 14 13 12 13 17 19 21 24 25 26 24 19 14 11 9 8 9 9 10 10 10 11 12 11 9 9 12 12 9 6 6 7 7 10 14
0 0 0 0 1 3 4 3 1 2 4 7 11 15 16 16 15 15 17 19 21 25 27 27 25 22 17 13 10 9 10 12 12 13 15 15 15 12 10 11 14 12 8 5 5 6 6 9 13
0 0 0 1 2 3 3 2 1 1 3 6 11 16 18 19 19 19 19 20 24 30 31 29 26 24 19 16 13 11 12 13 14 16 18 18 16 12 10 12 12 11 9 6 6 7 7 7 9
0 0 0 1 3 3 2 1 1 2 4 7 11 15 20 22 22 22 22 23 26 33 36 34 33 31 26 21 16 14 15 15 16 17 18 18 16 13 11 11 10 10 9 9 9 9 8 6 5
0 0 0 1 2 3 2 1 2 5 8 9 11 14 18 23 24 24 24 24 25 31 37 41 43 42 35 26 20 17 15 14 15 17 16 16 16 15 14 12 11 10 9 10 10 11 9 7 6
0 0 0 1 1 2 2 1 1 5 8 9 9 11 14 21 26 26 24 23 23 27 36 44 49 48 40 30 24 20 16 13 14 16 16 15 16 17 16 15 14 13 11 11 11 12 11 10 9
0 0 0 0 0 1 1 1 1 4 7 8 7 8 12 19 26 28 25 24 23 25 31 41 48 48 42 34 28 24 21 18 16 16 16 16 18 20 20 20 19 17 14 14 15 15 14 13 13
0 0 0 0 0 1 1 1 3 5 7 8 7 8 12 19 25 28 28 27 25 23 28 38 47 48 44 38 32 28 25 22 18 15 14 15 17 22 25 25 24 20 17 17 19 18 16 15 16
0 0 0 1 1 2 2 1 3 5 6 8 9 11 13 17 21 26 29 29 26 25 29 39 45 47 45 41 35 30 26 21 17 14 12 12 15 20 26 27 25 22 19 19 20 20 18 17 17
0 0 1 2 3 2 2 2 3 5 6 9 12 14 13 13 16 21 26 27 27 28 33 41 46 47 44 40 35 30 25 20 16 15 15 15 16 18 22 25 24 22 21 21 21 20 19 18 18
0 0 1 2 3 2 1 2 5 6 7 9 13 14 12 10 12 19 24 27 27 29 35 43 47 47 43 39 34 30 27 23 20 20 21 21 20 19 20 21 22 20 21 23 23 20 19 19 18
0 0 1 2 3 3 1 2 5 7 7 10 13 14 11 10 14 22 29 30 30 31 34 41 45 45 42 38 34 32 31 29 27 26 26 26 25 24 22 20 20 19 20 23 23 20 18 18 17
0 0 1 2 3 3 2 3 5 6 7 10 13 13 12 12 17 26 32 34 33 32 34 38 40 40 39 37 35 34 33 32 32 31 30 30 28 27 24 20 18 19 20 22 24 21 16 15 17
Wind_Speed
9 9 8 4 4 3 4 8 11 10 10 11 11 12 14 15 11 9 7 10 12 13 13 12 11 11 10 10 9 8 8 8 9 9 9 9 9 9 9 9 9 9 10 9 9 8 7 7 6
8 9 7 5 3 2 6 8 11 10 9 10 11 13 14 14 12 10 8 9 12 13 12 11 11 11 10 9 9 8 8 9 9 9 9 9 9 9 9 9 9 9 9 9 8 7 6 5 5
10 9 5 4 2 5 8 9 9 9 9 10 11 12 11 10 10 8 9 10 12 13 12 12 12 11 10 10 9 9 9 9 9 9 9 9 8 9 9 9 9 9 8 8 7 7 5 4 4
6 6 5 2 4 7 8 8 8 10 10 10 10 11 11 9 9 10 11 11 12 13 13 12 12 11 10 10 9 9 9 10 10 9 9 8 8 8 9 9 8 8 8 8 7 6 4 4 5
7 5 3 1 6 8 8 8 8 10 11 12 13 13 11 10 11 11 10 11 12 12 11 12 12 12 10 9 9 9 9 10 9 9 9 8 8 8 8 8 8 8 7 7 7 6 4 3 4
5 3 1 4 7 8 8 9 10 11 11 11 12 13 10 9 10 9 10 10 12 12 11 11 13 12 11 10 9 9 9 9 9 9 8 8 7 8 8 8 8 7 7 7 6 5 4 3 3
5 3 1 5 6 8 9 9 10 10 10 9 10 12 10 9 9 10 9 10 11 12 11 10 11 11 11 10 9 9 9 9 9 8 8 8 8 8 8 7 7 7 7 6 5 5 5 4 4
5 2 3 5 7 9 9 10 9 10 10 8 8 10 10 11 10 10 10 10 10 10 10 9 10 10 9 9 10 9 9 8 8 8 8 8 8 8 8 8 7 7 7 6 6 6 6 6 6
5 3 2 6 7 7 7 8 8 10 11 12 12 14 14 14 12 10 10 9 8 8 7 7 8 9 9 9 10 9 8 8 8 7 8 7 5 6 6 7 9 8 7 6 6 6 6 7 8
3 1 5 6 6 6 7 7 7 9 12 14 15 16 15 13 11 9 10 10 8 7 7 7 7 6 7 6 7 6 6 5 4 4 5 4 3 3 5 7 9 9 8 7 7 8 7 8 6
1 1 5 5 6 6 7 7 9 9 10 12 14 14 13 12 10 9 9 9 8 6 6 7 7 5 5 4 5 3 3 4 4 4 4 3 2 2 4 3 5 5 7 5 6 7 6 6 4
2 0 3 4 5 6 8 8 9 10 10 12 13 13 12 11 10 9 9 9 7 6 6 7 7 5 4 3 3 3 2 3 3 3 3 2 1 1 2 2 2 3 3 3 3 3 4 4 4
2 1 4 4 5 6 7 8 9 10 11 13 13 12 11 11 10 9 9 8 8 6 6 6 6 5 4 2 1 2 2 3 4 2 2 2 2 1 2 1 1 2 2 2 2 2 2 1 1
2 1 1 4 4 5 6 8 8 10 12 12 12 11 10 10 10 9 9 8 7 6 7 7 6 6 4 3 1 1 2 2 3 2 2 2 2 1 1 2 1 1 1 1 2 2 1 1 0
1 2 3 3 5 6 5 6 8 9 11 11 11 10 10 10 10 9 8 8 8 7 7 6 6 7 4 3 1 2 2 3 2 2 2 1 1 2 1 1 1 1 1 2 1 2 1 2 1
4 4 4 4 5 7 4 5 8 9 11 10 10 11 10 9 10 9 9 8 8 7 6 5 6 7 5 3 1 1 1 2 2 2 2 2 1 1 1 0 0 1 1 1 1 1 0 0 0
5 4 3 3 4 5 5 6 8 9 10 10 10 10 10 9 9 9 10 9 8 7 6 5 6 6 4 3 2 1 1 2 1 1 1 2 1 1 1 1 0 1 1 0 1 1 0 0 1
3 5 4 5 5 4 4 6 7 8 9 11 11 11 11 10 8 9 10 10 9 8 7 5 5 4 3 3 1 1 1 1 1 1 1 1 1 1 1 1 0 1 1 1 1 1 0 1 2
5 5 6 6 3 3 4 6 8 8 8 10 10 10 12 12 11 10 10 10 10 9 7 5 5 5 3 2 1 1 1 1 1 2 2 2 1 1 0 0 1 0 0 0 1 1 1 2 1
6 6 5 4 4 4 4 6 7 8 8 9 11 11 11 11 11 10 10 10 10 9 8 6 5 5 4 2 1 1 1 1 2 1 2 1 1 0 1 0 1 1 1 0 1 1 1 2 1
5 5 5 6 5 6 5 6 7 9 9 8 9 11 12 13 13 11 10 9 10 9 8 7 6 5 4 3 2 1 1 1 1 1 1 1 1 1 0 0 0 0 1 1 1 1 2 2 1
5 5 6 7 7 6 7 5 6 8 7 8 9 10 12 12 12 12 11 9 9 9 9 8 6 5 4 3 2 2 1 1 1 1 1 1 1 1 1 1 0 1 1 0 1 1 1 1 2
6 5 7 8 8 8 7 5 4 5 7 8 10 10 11 12 12 11 11 9 9 9 9 8 7 5 4 3 2 2 1 1 1 1 2 1 1 1 2 1 1 1 0 0 1 2 1 1 2
5 6 8 8 5 8 8 5 4 5 8 9 10 10 11 12 11 11 11 9 9 9 9 9 8 6 5 4 3 3 2 1 1 1 1 2 2 1 2 1 1 0 1 1 1 1 2 2 3
7 5 4 5 6 8 7 4 5 8 9 9 9 9 12 12 12 12 11 10 9 9 9 8 8 6 6 5 4 3 2 2 1 0 1 2 1 1 1 1 1 0 1 1 1 1 2 2 2
8 7 6 5 6 5 3 1 4 8 7 8 8 10 11 12 12 12 12 11 10 9 9 9 8 7 6 6 4 3 3 2 1 2 2 1 1 0 1 1 1 1 2 2 1 1 2 1 2
8 7 9 8 7 5 2 1 2 5 8 10 9 10 10 11 12 12 12 11 10 10 9 9 8 8 7 6 5 4 3 2 2 2 1 1 1 0 1 1 1 1 1 2 1 1 2 2 2
9 7 5 5 4 5 3 4 2 2 4 8 10 10 11 11 11 11 11 10 9 9 9 8 7 7 6 6 5 5 4 3 2 1 1 1 1 1 0 0 1 1 1 1 2 2 1 1 2
9 10 7 5 5 6 4 2 3 3 2 4 7 8 8 9 8 8 8 9 9 8 8 8 7 7 6 6 4 4 4 4 3 3 2 1 0 0 0 0 1 1 1 1 2 2 1 2 2
10 11 8 6 6 6 5 1 1 2 0 1 5 8 8 8 9 8 8 8 8 7 6 7 7 7 6 5 4 4 3 3 3 3 2 2 1 1 1 1 1 2 1 1 1 2 2 2 1
Wind_Direction
190 207 217 236 245 244 42 56 61 58 61 57 54 61 59 51 57 87 107 102 106 110 114 114 111 113 112 112 112 113 117 120 120 118 115 113 111 112 112 113 112 112 114 114 113 112 110 111 115
212 216 224 241 258 45 56 62 63 63 69 75 65 66 69 65 72 94 99 102 109 111 112 113 115 114 112 112 112 113 118 122 121 118 117 115 115 116 115 113 113 112 114 116 115 116 113 118 135
239 239 250 241 12 45 55 66 75 81 78 79 74 62 61 73 80 92 105 112 108 109 110 116 121 117 115 113 113 112 111 117 121 121 120 118 117 118 117 114 112 113 115 117 117 116 118 127 139
237 231 241 260 51 50 62 74 80 85 79 77 82 77 72 69 91 109 117 115 112 114 115 122 124 121 119 118 120 118 115 113 116 119 122 121 119 118 118 115 115 117 119 119 117 115 117 126 140
234 258 253 56 63 62 65 70 78 82 81 80 85 93 88 86 100 115 121 119 117 116 118 125 129 126 124 122 123 126 126 124 122 122 122 125 128 127 125 124 126 128 127 126 125 126 128 132 149
249 244 256 73 70 70 66 67 72 78 86 94 99 100 96 109 110 112 116 117 116 118 119 126 136 133 131 129 126 131 134 135 134 133 136 139 142 140 140 141 139 139 139 141 143 151 160 170 175
254 280 321 81 84 76 67 66 72 81 85 88 103 104 112 115 114 116 118 116 117 121 125 135 141 140 139 138 137 136 138 140 142 144 148 152 157 156 154 153 154 154 154 158 165 174 187 198 204
239 288 347 59 70 78 74 74 79 87 87 89 96 108 122 126 125 120 114 112 116 120 127 136 141 144 148 146 149 146 147 149 148 153 157 159 163 166 164 162 163 166 166 171 181 191 201 207 220
253 277 23 59 68 80 83 86 88 97 98 85 80 101 122 129 125 124 115 110 108 110 121 129 134 144 149 148 147 153 156 159 161 163 168 171 175 173 171 164 168 175 178 188 199 208 212 217 226
231 230 55 63 75 84 84 87 96 98 95 98 100 108 124 129 128 124 120 117 115 118 121 120 126 131 141 140 142 158 155 157 170 156 171 184 185 171 147 150 175 180 188 199 210 215 222 230 227
234 57 69 75 83 87 90 83 85 87 91 105 117 124 128 130 132 125 119 117 120 121 112 111 116 123 125 121 137 150 148 156 164 162 174 173 162 153 134 159 168 185 193 204 203 210 220 227 227
214 130 89 87 83 84 86 81 82 83 94 107 119 129 134 136 132 129 125 123 119 120 117 115 117 110 103 110 131 144 143 144 144 153 167 142 142 145 137 153 173 184 185 195 209 218 217 229 229
248 159 121 110 99 97 98 95 95 98 106 115 125 131 136 134 130 126 123 123 125 126 118 109 107 106 105 98 102 119 115 128 133 142 151 155 147 149 147 159 187 204 186 188 212 234 234 228 247
284 328 129 141 130 114 109 107 109 113 118 121 126 131 131 125 125 127 130 131 133 136 127 125 126 117 118 114 95 113 127 125 121 128 132 159 137 152 157 167 195 225 203 204 210 212 219 234 275
250 250 243 177 150 130 126 111 119 130 129 129 132 134 132 131 131 133 133 137 138 134 128 133 135 123 121 112 114 134 137 117 122 132 140 147 145 161 185 188 202 234 228 202 206 224 196 200 200
247 227 226 194 168 153 158 135 136 143 139 139 140 138 137 137 139 138 134 131 134 132 127 135 131 125 125 113 86 78 99 113 128 133 138 157 160 160 173 185 212 260 255 231 208 222 233 296 273
260 246 236 243 204 164 159 146 148 155 148 144 143 145 144 143 143 141 136 133 129 124 122 122 113 120 128 135 153 150 119 113 122 129 136 150 162 150 168 165 251 270 282 319 302 75 35 308 303
270 264 250 237 220 169 153 153 160 168 160 153 154 156 150 151 155 148 141 139 133 128 126 127 121 120 131 128 137 146 124 138 138 113 114 133 178 162 231 164 182 306 4 13 18 11 312 270 265
247 245 254 251 235 197 178 178 175 176 174 158 159 158 155 154 155 151 147 143 139 137 138 141 141 138 144 132 153 160 157 172 161 152 140 160 187 138 303 316 146 255 52 357 3 314 275 260 230
236 242 248 261 237 222 195 205 185 177 172 163 162 159 153 150 149 150 154 150 150 148 150 151 148 143 146 142 171 177 176 191 176 126 122 140 132 247 213 202 226 160 144 268 287 285 293 278 237
249 255 254 263 259 244 222 223 193 173 168 165 165 158 155 158 156 154 157 158 157 154 155 155 152 145 152 156 163 153 163 226 141 127 126 152 174 193 266 115 310 185 184 226 245 281 266 286 290
258 262 255 252 259 250 232 231 200 171 170 173 171 165 158 156 154 156 159 158 160 157 158 150 146 146 151 153 166 179 164 160 132 136 150 178 199 186 176 177 252 282 291 349 275 259 283 281 292
243 251 262 250 254 269 247 250 195 174 184 195 183 171 159 155 153 154 158 161 162 161 158 151 144 149 153 164 165 165 165 164 159 146 150 173 176 188 176 178 214 266 293 314 303 336 318 311 295
253 252 263 256 252 262 255 231 205 191 202 196 187 173 154 149 153 155 157 159 162 158 154 152 149 155 159 165 169 165 178 201 169 164 169 198 190 192 190 171 167 242 289 287 271 299 297 298 306
239 254 269 258 244 245 243 227 170 190 186 180 177 169 156 157 158 158 159 161 160 159 156 155 152 157 163 165 180 172 182 197 203 229 221 231 204 173 169 160 142 264 274 277 293 264 285 287 290
238 235 240 254 263 277 279 239 158 180 159 153 160 161 162 160 160 162 161 161 163 162 156 152 155 159 165 168 175 174 175 197 199 229 277 279 280 118 125 137 169 243 276 282 275 278 271 270 281
242 245 262 268 275 278 282 267 224 179 153 163 166 160 160 165 161 162 160 161 162 161 158 155 155 162 168 170 171 170 176 194 206 212 228 284 316 197 117 140 168 240 283 304 290 266 286 293 285
240 252 268 275 288 290 262 246 204 192 181 167 166 161 164 165 161 157 156 159 160 161 156 152 154 162 164 170 182 173 182 193 197 221 222 243 286 359 82 168 196 230 276 289 295 281 258 283 293
230 240 244 256 255 267 271 248 137 194 182 179 161 152 159 152 145 139 145 149 151 151 150 151 159 164 171 172 174 171 177 186 192 198 203 200 221 234 217 249 238 233 249 258 268 274 271 267 281
249 247 241 245 247 261 273 298 86 85 234 185 156 147 154 144 141 141 144 143 140 142 145 155 164 169 169 168 169 172 172 179 192 195 200 184 188 213 208 226 235 234 230 245 254 274 285 272 269